User: anonymous   Login
Location: Newark
(0.5333°S, 166.9167°E)
Time: 01:00:09
(UTC+00:00)
Language:

BUGSAT 1 - Orbit

View from above orbital plane
View from above orbital plane
View from above satellite
View from above satellite

Ground track
Ground track

The orbit data is extracted from the following two-line orbital elements,

1 40014U 14033E   19143.81162110  .00000702  00000-0  68788-4 0  9998
2 40014  98.0136  90.7787 0032714 144.1077 216.2369 14.95262169268636
Epoch (UTC): 23 May 2019 19:28:44
Eccentricity: 0.0032714
inclination: 98.0136°
perigee height: 559 km
apogee height: 604 km
right ascension of ascending node: 90.7787°
argument of perigee: 144.1077°
revolutions per day: 14.95262169
mean anomaly at epoch: 216.2369°
orbit number at epoch: 26863

The dashed part of the orbit path shows where the satellite is in the earth's shadow,  

DLR